| time (UTC) | temp F | wind direction | speed knots | gust knots | rain 1hr in | rain 24hr in | rain mn in | humidity % | barometer mb |
| 20260507170022 | 57 | 342 | 0.0 | 0.0 | 0.00 | 0.00 | 0.00 | 24 | 1016.5 |
| 20260507165520 | 57 | 323 | 0.0 | 0.0 | 0.00 | 0.00 | 0.00 | 25 | 1016.6 |
| 20260507165023 | 57 | 351 | 0.0 | 0.0 | 0.00 | 0.00 | 0.00 | 28 | 1016.6 |
| 20260507164520 | 57 | 344 | 0.0 | 0.0 | 0.00 | 0.00 | 0.00 | 26 | 1016.7 |
| 20260507164019 | 57 | 345 | 0.0 | 0.0 | 0.00 | 0.00 | 0.00 | 27 | 1016.7 |
| 20260507163520 | 57 | 20 | 0.0 | 0.0 | 0.00 | 0.00 | 0.00 | 30 | 1016.7 |
| 20260507163023 | 56 | 335 | 0.0 | 0.0 | 0.00 | 0.00 | 0.00 | 29 | 1016.8 |
| 20260507162519 | 56 | 5 | 0.0 | 0.0 | 0.00 | 0.00 | 0.00 | 28 | 1016.9 |
| 20260507162023 | 56 | 355 | 0.0 | 0.0 | 0.00 | 0.00 | 0.00 | 30 | 1016.8 |
| 20260507161519 | 57 | 346 | 0.0 | 0.0 | 0.00 | 0.00 | 0.00 | 28 | 1016.9 |
| 20260507161018 | 57 | 340 | 0.0 | 0.0 | 0.00 | 0.00 | 0.00 | 29 | 1016.8 |
| 20260507160518 | 57 | 282 | 0.0 | 0.0 | 0.00 | 0.00 | 0.00 | 32 | 1016.8 |
| 20260507160017 | 57 | 292 | 0.0 | 0.0 | 0.00 | 0.00 | 0.00 | 29 | 1016.8 |
| 20260507155516 | 56 | 317 | 0.0 | 0.0 | 0.00 | 0.00 | 0.00 | 31 | 1016.9 |
| 20260507155015 | 56 | 347 | 0.0 | 0.0 | 0.00 | 0.00 | 0.00 | 31 | 1016.9 |
| 20260507154515 | 56 | 323 | 0.0 | 0.0 | 0.00 | 0.00 | 0.00 | 31 | 1016.9 |
| 20260507154014 | 56 | 340 | 0.0 | 0.0 | 0.00 | 0.00 | 0.00 | 31 | 1017.0 |
| 20260507153513 | 56 | 360 | 0.0 | 0.0 | 0.00 | 0.00 | 0.00 | 31 | 1016.9 |
| 20260507153012 | 56 | 360 | 0.0 | 0.0 | 0.00 | 0.00 | 0.00 | 32 | 1016.9 |
| 20260507152512 | 55 | 331 | 0.0 | 0.0 | 0.00 | 0.00 | 0.00 | 35 | 1016.9 |
| 20260507152011 | 55 | 325 | 0.0 | 0.0 | 0.00 | 0.00 | 0.00 | 34 | 1016.9 |
| 20260507151511 | 55 | 360 | 0.0 | 0.0 | 0.00 | 0.00 | 0.00 | 34 | 1016.8 |
| 20260507151009 | 55 | 5 | 0.0 | 0.9 | 0.00 | 0.00 | 0.00 | 35 | 1016.8 |
| 20260507150513 | 55 | 360 | 0.0 | 0.9 | 0.00 | 0.00 | 0.00 | 34 | 1016.8 |
| 20260507150012 | 54 | 348 | 0.0 | 0.0 | 0.00 | 0.00 | 0.00 | 37 | 1016.8 |
| 20260507145508 | 54 | 23 | 0.0 | 0.0 | 0.00 | 0.00 | 0.00 | 36 | 1016.9 |
| 20260507145008 | 54 | 15 | 0.0 | 0.0 | 0.00 | 0.00 | 0.00 | 36 | 1016.8 |
| 20260507144507 | 54 | 355 | 0.0 | 0.0 | 0.00 | 0.00 | 0.00 | 35 | 1016.8 |
| 20260507144006 | 54 | 355 | 0.0 | 0.0 | 0.00 | 0.00 | 0.00 | 37 | 1016.9 |
| 20260507143504 | 53 | 25 | 0.0 | 0.0 | 0.00 | 0.00 | 0.00 | 38 | 1016.9 |
| 20260507143004 | 53 | 13 | 0.0 | 0.0 | 0.00 | 0.00 | 0.00 | 38 | 1016.9 |
| 20260507142505 | 53 | 360 | 0.0 | 0.0 | 0.00 | 0.00 | 0.00 | 37 | 1016.9 |
| 20260507142004 | 53 | 360 | 0.0 | 0.0 | 0.00 | 0.00 | 0.00 | 36 | 1016.9 |
| 20260507141504 | 53 | 11 | 0.0 | 0.0 | 0.00 | 0.00 | 0.00 | 39 | 1016.9 |
| 20260507141002 | 53 | 17 | 0.0 | 0.0 | 0.00 | 0.00 | 0.00 | 39 | 1016.8 |
| 20260507140502 | 52 | 360 | 0.0 | 0.0 | 0.00 | 0.00 | 0.00 | 37 | 1016.8 |
| 20260507140112 | 52 | 16 | 0.0 | 0.0 | 0.00 | 0.00 | 0.00 | 39 | 1016.7 |
| 20260507135559 | 52 | 19 | 0.0 | 0.0 | 0.00 | 0.00 | 0.00 | 38 | 1016.7 |
| 20260507135103 | 52 | 5 | 0.0 | 0.0 | 0.00 | 0.00 | 0.00 | 40 | 1016.8 |
| 20260507134559 | 51 | 10 | 0.0 | 0.0 | 0.00 | 0.00 | 0.00 | 40 | 1016.8 |
| 20260507134058 | 51 | 26 | 0.0 | 0.0 | 0.00 | 0.00 | 0.00 | 43 | 1017.0 |
| 20260507133557 | 51 | 13 | 0.0 | 0.0 | 0.00 | 0.00 | 0.00 | 45 | 1016.8 |
| 20260507133056 | 51 | 5 | 0.0 | 0.0 | 0.00 | 0.00 | 0.00 | 48 | 1016.7 |
| 20260507132557 | 50 | 355 | 0.0 | 0.0 | 0.00 | 0.00 | 0.00 | 48 | 1016.7 |
| 20260507132056 | 50 | 13 | 0.0 | 0.0 | 0.00 | 0.00 | 0.00 | 49 | 1016.8 |
| 20260507131600 | 50 | 22 | 0.0 | 0.0 | 0.00 | 0.00 | 0.00 | 49 | 1016.8 |
| 20260507131055 | 49 | 9 | 0.0 | 0.0 | 0.00 | 0.00 | 0.00 | 51 | 1016.7 |
| 20260507130554 | 49 | 5 | 0.0 | 0.0 | 0.00 | 0.00 | 0.00 | 53 | 1016.7 |
| 20260507130053 | 48 | 355 | 0.0 | 0.0 | 0.00 | 0.00 | 0.00 | 53 | 1016.7 |
| 20260507125554 | 48 | 10 | 0.0 | 0.0 | 0.00 | 0.00 | 0.00 | 55 | 1016.8 |
| 20260507125053 | 48 | 355 | 0.0 | 0.0 | 0.00 | 0.00 | 0.00 | 55 | 1016.7 |
| 20260507124552 | 47 | 355 | 0.0 | 0.0 | 0.00 | 0.00 | 0.00 | 55 | 1016.7 |
| 20260507124052 | 47 | 355 | 0.0 | 0.0 | 0.00 | 0.00 | 0.00 | 55 | 1016.7 |
| 20260507123552 | 47 | 355 | 0.0 | 0.0 | 0.00 | 0.00 | 0.00 | 56 | 1016.7 |
| 20260507123054 | 46 | 355 | 0.0 | 0.0 | 0.00 | 0.00 | 0.00 | 56 | 1016.7 |
| 20260507122550 | 46 | 355 | 0.0 | 0.0 | 0.00 | 0.00 | 0.00 | 57 | 1016.6 |
| 20260507122051 | 46 | 355 | 0.0 | 0.0 | 0.00 | 0.00 | 0.00 | 57 | 1016.6 |
| 20260507121551 | 46 | 355 | 0.0 | 0.0 | 0.00 | 0.00 | 0.00 | 57 | 1016.7 |
| 20260507121051 | 46 | 355 | 0.0 | 0.0 | 0.00 | 0.00 | 0.00 | 57 | 1016.7 |
| 20260507120550 | 45 | 355 | 0.0 | 0.0 | 0.00 | 0.00 | 0.00 | 57 | 1016.7 |
| 20260507120051 | 45 | 355 | 0.0 | 0.0 | 0.00 | 0.00 | 0.00 | 58 | 1016.7 |
| 20260507115551 | 45 | 355 | 0.0 | 0.0 | 0.00 | 0.00 | 0.00 | 58 | 1016.8 |
| 20260507115050 | 45 | 355 | 0.0 | 0.0 | 0.00 | 0.00 | 0.00 | 59 | 1016.8 |
| 20260507114550 | 44 | 355 | 0.0 | 0.0 | 0.00 | 0.00 | 0.00 | 59 | 1016.8 |
| 20260507114050 | 44 | 355 | 0.0 | 0.0 | 0.00 | 0.00 | 0.00 | 59 | 1016.8 |
| 20260507113550 | 44 | 355 | 0.0 | 0.0 | 0.00 | 0.00 | 0.00 | 59 | 1016.8 |
| 20260507113049 | 44 | 355 | 0.0 | 0.0 | 0.00 | 0.00 | 0.00 | 59 | 1016.7 |
| 20260507112549 | 44 | 355 | 0.0 | 0.0 | 0.00 | 0.00 | 0.00 | 59 | 1016.7 |
| 20260507112049 | 44 | 355 | 0.0 | 0.0 | 0.00 | 0.00 | 0.00 | 60 | 1016.7 |
| 20260507111548 | 43 | 355 | 0.0 | 0.0 | 0.00 | 0.00 | 0.00 | 60 | 1016.7 |
| 20260507111048 | 43 | 355 | 0.0 | 0.0 | 0.00 | 0.00 | 0.00 | 60 | 1016.7 |
| 20260507110546 | 43 | 355 | 0.0 | 0.0 | 0.00 | 0.00 | 0.00 | 61 | 1016.6 |
| 20260507110050 | 43 | 355 | 0.0 | 0.0 | 0.00 | 0.00 | 0.00 | 61 | 1016.6 |
| 20260507105545 | 43 | 355 | 0.0 | 0.0 | 0.00 | 0.00 | 0.00 | 61 | 1016.6 |
| 20260507105045 | 43 | 355 | 0.0 | 0.0 | 0.00 | 0.00 | 0.00 | 61 | 1016.5 |
| 20260507104545 | 43 | 355 | 0.0 | 0.0 | 0.00 | 0.00 | 0.00 | 61 | 1016.5 |
| 20260507104044 | 43 | 355 | 0.0 | 0.0 | 0.00 | 0.00 | 0.00 | 62 | 1016.4 |
| 20260507103541 | 44 | 355 | 0.0 | 0.0 | 0.00 | 0.00 | 0.00 | 62 | 1016.3 |
| 20260507103042 | 44 | 355 | 0.0 | 0.0 | 0.00 | 0.00 | 0.00 | 62 | 1016.2 |
| 20260507102541 | 44 | 355 | 0.0 | 0.0 | 0.00 | 0.00 | 0.00 | 63 | 1016.1 |
| 20260507102040 | 44 | 355 | 0.0 | 0.0 | 0.00 | 0.00 | 0.00 | 63 | 1016.2 |
| 20260507101557 | 44 | 355 | 0.0 | 0.0 | 0.00 | 0.00 | 0.00 | 64 | 1016.1 |
| 20260507101039 | 44 | 355 | 0.0 | 0.0 | 0.00 | 0.00 | 0.00 | 64 | 1016.1 |
| 20260507100539 | 43 | 355 | 0.0 | 0.0 | 0.00 | 0.00 | 0.00 | 64 | 1015.9 |
| 20260507100039 | 43 | 355 | 0.0 | 0.0 | 0.00 | 0.00 | 0.00 | 64 | 1016.0 |
| 20260507095539 | 43 | 355 | 0.0 | 0.0 | 0.00 | 0.01 | 0.00 | 65 | 1016.0 |
| 20260507095038 | 43 | 355 | 0.0 | 0.0 | 0.00 | 0.01 | 0.00 | 65 | 1016.0 |
| 20260507094543 | 43 | 355 | 0.0 | 0.0 | 0.00 | 0.01 | 0.00 | 64 | 1015.9 |
| 20260507094041 | 43 | 355 | 0.0 | 0.0 | 0.00 | 0.01 | 0.00 | 64 | 1015.9 |
| 20260507093537 | 43 | 355 | 0.0 | 0.0 | 0.00 | 0.01 | 0.00 | 64 | 1015.8 |
| 20260507093036 | 44 | 355 | 0.0 | 0.0 | 0.00 | 0.01 | 0.00 | 64 | 1015.8 |
| 20260507092536 | 44 | 355 | 0.0 | 0.0 | 0.00 | 0.01 | 0.00 | 64 | 1015.8 |
| 20260507092034 | 44 | 355 | 0.0 | 0.0 | 0.00 | 0.01 | 0.00 | 64 | 1015.8 |
| 20260507091551 | 44 | 355 | 0.0 | 0.0 | 0.00 | 0.01 | 0.00 | 64 | 1015.7 |
| 20260507091033 | 44 | 355 | 0.0 | 0.0 | 0.00 | 0.01 | 0.00 | 64 | 1015.7 |
| 20260507090533 | 44 | 355 | 0.0 | 0.0 | 0.00 | 0.01 | 0.00 | 64 | 1015.7 |
| 20260507090033 | 44 | 355 | 0.0 | 0.0 | 0.00 | 0.01 | 0.00 | 64 | 1015.6 |
| 20260507085532 | 45 | 355 | 0.0 | 0.0 | 0.00 | 0.05 | 0.00 | 63 | 1015.6 |
| 20260507085032 | 45 | 355 | 0.0 | 0.0 | 0.00 | 0.05 | 0.00 | 63 | 1015.6 |
| 20260507084530 | 45 | 355 | 0.0 | 0.0 | 0.00 | 0.05 | 0.00 | 63 | 1015.5 |
| 20260507084030 | 45 | 355 | 0.0 | 0.0 | 0.00 | 0.05 | 0.00 | 63 | 1015.6 |
| 20260507083530 | 45 | 355 | 0.0 | 0.0 | 0.00 | 0.05 | 0.00 | 63 | 1015.4 |
| 20260507083031 | 45 | 355 | 0.0 | 0.0 | 0.00 | 0.05 | 0.00 | 63 | 1015.4 |
| 20260507082530 | 45 | 355 | 0.0 | 0.0 | 0.00 | 0.05 | 0.00 | 63 | 1015.4 |
| 20260507082029 | 45 | 355 | 0.0 | 0.0 | 0.00 | 0.05 | 0.00 | 63 | 1015.4 |
| 20260507081540 | 45 | 355 | 0.0 | 0.0 | 0.00 | 0.05 | 0.00 | 63 | 1015.4 |
| 20260507081029 | 46 | 355 | 0.0 | 0.0 | 0.00 | 0.05 | 0.00 | 63 | 1015.4 |
| 20260507080527 | 46 | 355 | 0.0 | 0.0 | 0.00 | 0.05 | 0.00 | 62 | 1015.4 |
| 20260507080028 | 46 | 355 | 0.0 | 0.0 | 0.00 | 0.05 | 0.00 | 63 | 1015.5 |
| 20260507075527 | 46 | 355 | 0.0 | 0.0 | 0.00 | 0.05 | 0.00 | 63 | 1015.5 |
| 20260507075027 | 46 | 355 | 0.0 | 0.0 | 0.00 | 0.05 | 0.00 | 63 | 1015.4 |
| 20260507074530 | 46 | 355 | 0.0 | 0.0 | 0.00 | 0.05 | 0.00 | 63 | 1015.4 |
| 20260507074025 | 46 | 355 | 0.0 | 0.0 | 0.00 | 0.05 | 0.00 | 63 | 1015.3 |
| 20260507073525 | 46 | 355 | 0.0 | 0.0 | 0.00 | 0.05 | 0.00 | 63 | 1015.1 |
| 20260507073024 | 46 | 355 | 0.0 | 0.0 | 0.00 | 0.05 | 0.00 | 62 | 1015.2 |
| 20260507072524 | 47 | 355 | 0.0 | 0.0 | 0.00 | 0.05 | 0.00 | 62 | 1015.2 |
| 20260507072025 | 47 | 355 | 0.0 | 0.0 | 0.00 | 0.05 | 0.00 | 63 | 1015.0 |
| 20260507071523 | 47 | 355 | 0.0 | 0.0 | 0.00 | 0.05 | 0.00 | 63 | 1015.2 |
| 20260507071022 | 47 | 355 | 0.0 | 0.0 | 0.00 | 0.05 | 0.00 | 63 | 1015.2 |
| 20260507070522 | 47 | 355 | 0.0 | 0.0 | 0.00 | 0.05 | 0.00 | 63 | 1015.2 |
| 20260507070022 | 47 | 355 | 0.0 | 0.0 | 0.00 | 0.05 | 0.00 | 63 | 1015.3 |
| 20260507065519 | 48 | 355 | 0.0 | 0.0 | 0.00 | 0.12 | 0.00 | 63 | 1015.4 |
| 20260507065019 | 48 | 355 | 0.0 | 0.0 | 0.00 | 0.12 | 0.00 | 63 | 1015.3 |
| 20260507064519 | 48 | 355 | 0.0 | 0.0 | 0.00 | 0.12 | 0.00 | 62 | 1015.4 |
| 20260507064018 | 48 | 355 | 0.0 | 0.0 | 0.00 | 0.12 | 0.00 | 62 | 1015.1 |
| 20260507063518 | 49 | 355 | 0.0 | 0.0 | 0.00 | 0.12 | 0.00 | 62 | 1015.3 |
| 20260507063016 | 49 | 355 | 0.0 | 0.0 | 0.00 | 0.12 | 0.00 | 62 | 1015.4 |
| 20260507062517 | 49 | 355 | 0.0 | 0.0 | 0.00 | 0.12 | 0.00 | 62 | 1015.5 |
| 20260507062015 | 49 | 355 | 0.0 | 0.0 | 0.00 | 0.12 | 0.00 | 62 | 1015.4 |
| 20260507061528 | 49 | 355 | 0.0 | 0.0 | 0.00 | 0.12 | 0.00 | 61 | 1015.5 |
| 20260507061014 | 49 | 355 | 0.0 | 0.0 | 0.00 | 0.12 | 0.00 | 61 | 1015.3 |
| 20260507060513 | 49 | 355 | 0.0 | 0.0 | 0.00 | 0.12 | 0.00 | 60 | 1015.4 |
| 20260507060012 | 50 | 355 | 0.0 | 0.0 | 0.00 | 0.12 | 0.00 | 60 | 1015.2 |
| 20260507055512 | 50 | 355 | 0.0 | 0.0 | 0.00 | 0.15 | 0.00 | 60 | 1015.5 |
| 20260507055012 | 50 | 355 | 0.0 | 0.0 | 0.00 | 0.15 | 0.00 | 59 | 1015.5 |
| 20260507054511 | 50 | 355 | 0.0 | 0.0 | 0.00 | 0.15 | 0.00 | 59 | 1015.7 |
| 20260507054011 | 50 | 355 | 0.0 | 0.0 | 0.00 | 0.15 | 0.00 | 59 | 1015.5 |
| 20260507053511 | 50 | 355 | 0.0 | 0.0 | 0.00 | 0.15 | 0.00 | 59 | 1015.5 |
| 20260507053015 | 50 | 355 | 0.0 | 0.0 | 0.00 | 0.15 | 0.00 | 59 | 1015.5 |
| 20260507052512 | 50 | 355 | 0.0 | 0.0 | 0.00 | 0.15 | 0.00 | 59 | 1015.6 |
| 20260507052010 | 50 | 355 | 0.0 | 0.0 | 0.00 | 0.15 | 0.00 | 59 | 1015.5 |
| 20260507051510 | 50 | 355 | 0.0 | 0.0 | 0.00 | 0.15 | 0.00 | 59 | 1015.4 |
| 20260507051010 | 50 | 355 | 0.0 | 0.0 | 0.00 | 0.15 | 0.00 | 59 | 1015.4 |
| 20260507050509 | 50 | 355 | 0.0 | 0.0 | 0.00 | 0.15 | 0.00 | 59 | 1015.5 |
| 20260507050018 | 50 | 355 | 0.0 | 0.0 | 0.00 | 0.15 | 0.00 | 59 | 1015.6 |
| 20260507045508 | 50 | 355 | 0.0 | 0.0 | 0.00 | 0.26 | 0.00 | 59 | 1015.5 |
| 20260507045007 | 51 | 355 | 0.0 | 0.0 | 0.00 | 0.26 | 0.00 | 59 | 1015.4 |
| 20260507044513 | 51 | 355 | 0.0 | 0.0 | 0.00 | 0.26 | 0.00 | 60 | 1015.2 |
| 20260507044004 | 51 | 355 | 0.0 | 0.0 | 0.00 | 0.26 | 0.00 | 59 | 1015.1 |
| 20260507043504 | 51 | 355 | 0.0 | 0.0 | 0.00 | 0.26 | 0.00 | 59 | 1015.0 |
| 20260507043003 | 51 | 355 | 0.0 | 0.0 | 0.00 | 0.26 | 0.00 | 58 | 1015.0 |
| 20260507042502 | 52 | 355 | 0.0 | 0.0 | 0.00 | 0.26 | 0.00 | 57 | 1015.0 |
| 20260507042002 | 52 | 355 | 0.0 | 0.0 | 0.00 | 0.26 | 0.00 | 57 | 1015.1 |
| 20260507041501 | 52 | 355 | 0.0 | 0.0 | 0.00 | 0.26 | 0.00 | 57 | 1015.3 |
| 20260507041101 | 52 | 339 | 0.0 | 0.0 | 0.00 | 0.26 | 0.00 | 58 | 1015.3 |
| 20260507040603 | 52 | 339 | 0.0 | 0.0 | 0.00 | 0.26 | 0.00 | 58 | 1015.3 |
| 20260507040059 | 52 | 327 | 0.0 | 0.0 | 0.00 | 0.26 | 0.00 | 57 | 1015.3 |
| 20260507035559 | 52 | 327 | 0.0 | 0.0 | 0.00 | 0.27 | 0.26 | 57 | 1015.5 |
| 20260507035059 | 52 | 326 | 0.0 | 0.0 | 0.00 | 0.27 | 0.26 | 57 | 1015.5 |
| 20260507034603 | 52 | 326 | 0.0 | 0.0 | 0.00 | 0.27 | 0.26 | 56 | 1015.4 |
| 20260507034058 | 52 | 326 | 0.0 | 0.0 | 0.00 | 0.27 | 0.26 | 56 | 1015.6 |
| 20260507033558 | 53 | 326 | 0.0 | 0.0 | 0.00 | 0.27 | 0.26 | 55 | 1015.4 |
| 20260507033059 | 53 | 326 | 0.0 | 0.0 | 0.00 | 0.27 | 0.26 | 55 | 1015.5 |
| 20260507032558 | 53 | 326 | 0.0 | 0.0 | 0.00 | 0.27 | 0.26 | 55 | 1015.6 |
| 20260507032057 | 53 | 326 | 0.0 | 0.0 | 0.00 | 0.27 | 0.26 | 55 | 1015.6 |
| 20260507031557 | 53 | 326 | 0.0 | 0.0 | 0.00 | 0.27 | 0.26 | 54 | 1015.6 |
| 20260507031100 | 53 | 326 | 0.0 | 0.0 | 0.00 | 0.27 | 0.26 | 55 | 1015.7 |
| 20260507030555 | 53 | 326 | 0.0 | 0.0 | 0.00 | 0.27 | 0.26 | 55 | 1015.8 |
| 20260507030106 | 53 | 343 | 0.0 | 0.0 | 0.00 | 0.27 | 0.26 | 55 | 1015.6 |
| 20260507025555 | 53 | 343 | 0.0 | 0.0 | 0.00 | 0.31 | 0.26 | 55 | 1015.7 |
| 20260507025055 | 53 | 343 | 0.0 | 0.0 | 0.00 | 0.31 | 0.26 | 57 | 1015.6 |
| 20260507024602 | 53 | 343 | 0.0 | 0.0 | 0.00 | 0.31 | 0.26 | 56 | 1015.5 |
| 20260507024057 | 52 | 343 | 0.0 | 0.0 | 0.00 | 0.31 | 0.26 | 57 | 1015.6 |
| 20260507023556 | 52 | 343 | 0.0 | 0.0 | 0.00 | 0.31 | 0.26 | 58 | 1015.5 |
| 20260507023053 | 52 | 343 | 0.0 | 0.0 | 0.00 | 0.31 | 0.26 | 58 | 1015.4 |
| 20260507022553 | 52 | 343 | 0.0 | 0.0 | 0.00 | 0.31 | 0.26 | 58 | 1015.5 |
| 20260507022052 | 53 | 343 | 0.0 | 0.0 | 0.00 | 0.31 | 0.26 | 57 | 1015.3 |
| 20260507021612 | 53 | 343 | 0.0 | 0.0 | 0.00 | 0.31 | 0.26 | 56 | 1015.2 |
| 20260507021051 | 53 | 343 | 0.0 | 0.0 | 0.00 | 0.31 | 0.26 | 56 | 1015.1 |
| 20260507020550 | 53 | 343 | 0.0 | 0.0 | 0.00 | 0.31 | 0.26 | 56 | 1014.9 |
| 20260507020058 | 53 | 343 | 0.0 | 0.0 | 0.00 | 0.31 | 0.26 | 56 | 1014.9 |
| 20260507015547 | 54 | 343 | 0.0 | 0.0 | 0.00 | 0.33 | 0.26 | 56 | 1014.7 |
| 20260507015050 | 54 | 343 | 0.0 | 0.0 | 0.00 | 0.33 | 0.26 | 55 | 1014.6 |
| 20260507014607 | 54 | 343 | 0.0 | 0.0 | 0.00 | 0.33 | 0.26 | 54 | 1014.6 |
| 20260507014046 | 54 | 343 | 0.0 | 0.0 | 0.00 | 0.33 | 0.26 | 54 | 1014.4 |
| 20260507013547 | 54 | 343 | 0.0 | 0.0 | 0.00 | 0.33 | 0.26 | 54 | 1014.5 |
| 20260507013049 | 55 | 343 | 0.0 | 0.0 | 0.00 | 0.33 | 0.26 | 53 | 1014.4 |
| 20260507012545 | 55 | 343 | 0.0 | 0.0 | 0.00 | 0.33 | 0.26 | 53 | 1014.2 |
| 20260507012044 | 55 | 343 | 0.0 | 0.0 | 0.00 | 0.33 | 0.26 | 53 | 1014.2 |
| 20260507011545 | 55 | 340 | 0.0 | 0.0 | 0.00 | 0.33 | 0.26 | 53 | 1014.3 |
| 20260507011044 | 55 | 340 | 0.0 | 0.0 | 0.00 | 0.33 | 0.26 | 53 | 1014.3 |
| 20260507010548 | 55 | 340 | 0.0 | 0.0 | 0.00 | 0.33 | 0.26 | 53 | 1014.2 |
| 20260507010054 | 55 | 331 | 0.0 | 0.0 | 0.00 | 0.33 | 0.26 | 53 | 1014.1 |
| 20260507005544 | 55 | 331 | 0.0 | 0.0 | 0.00 | 0.34 | 0.26 | 53 | 1014.2 |
| 20260507005045 | 56 | 331 | 0.0 | 0.0 | 0.00 | 0.34 | 0.26 | 53 | 1014.3 |
| 20260507004547 | 56 | 331 | 0.0 | 0.0 | 0.00 | 0.34 | 0.26 | 53 | 1014.0 |
| 20260507004044 | 56 | 331 | 0.0 | 0.0 | 0.00 | 0.34 | 0.26 | 53 | 1014.2 |
| 20260507003544 | 56 | 331 | 0.0 | 0.0 | 0.00 | 0.34 | 0.26 | 53 | 1014.2 |
| 20260507003043 | 56 | 331 | 0.0 | 0.0 | 0.00 | 0.34 | 0.26 | 52 | 1014.1 |
| 20260507002544 | 56 | 331 | 0.0 | 0.0 | 0.00 | 0.34 | 0.26 | 51 | 1014.1 |
| 20260507002045 | 56 | 331 | 0.0 | 0.0 | 0.00 | 0.34 | 0.26 | 51 | 1014.2 |
| 20260507001543 | 56 | 331 | 0.0 | 0.0 | 0.00 | 0.34 | 0.26 | 51 | 1014.3 |
| 20260507001042 | 57 | 331 | 0.0 | 0.0 | 0.00 | 0.34 | 0.26 | 51 | 1014.3 |
| 20260507000542 | 57 | 331 | 0.0 | 0.0 | 0.00 | 0.34 | 0.26 | 52 | 1014.2 |
| 20260507000044 | 57 | 331 | 0.0 | 0.0 | 0.00 | 0.34 | 0.26 | 52 | 1014.2 |
| 20260506235542 | 57 | 331 | 0.0 | 0.0 | 0.00 | 0.36 | 0.26 | 50 | 1014.2 |
| 20260506235041 | 57 | 331 | 0.0 | 0.0 | 0.00 | 0.36 | 0.26 | 50 | 1014.1 |
| 20260506234541 | 57 | 331 | 0.0 | 0.0 | 0.00 | 0.36 | 0.26 | 50 | 1014.0 |
| 20260506234041 | 57 | 331 | 0.0 | 0.0 | 0.00 | 0.36 | 0.26 | 49 | 1013.9 |
| 20260506233541 | 58 | 331 | 0.0 | 0.0 | 0.00 | 0.36 | 0.26 | 48 | 1013.9 |
| 20260506233040 | 58 | 331 | 0.0 | 0.0 | 0.00 | 0.36 | 0.26 | 49 | 1013.8 |
| 20260506232540 | 58 | 331 | 0.0 | 0.0 | 0.00 | 0.36 | 0.26 | 48 | 1013.4 |
| 20260506232141 | 58 | 331 | 0.0 | 0.0 | 0.00 | 0.36 | 0.26 | 47 | 1013.6 |
| 20260506231540 | 58 | 336 | 0.0 | 0.0 | 0.00 | 0.36 | 0.26 | 46 | 1013.7 |
| 20260506231044 | 58 | 346 | 0.0 | 0.0 | 0.00 | 0.36 | 0.26 | 45 | 1013.7 |
| 20260506230544 | 58 | 360 | 0.0 | 0.0 | 0.00 | 0.36 | 0.26 | 44 | 1013.8 |
| 20260506230042 | 58 | 5 | 0.0 | 0.0 | 0.00 | 0.36 | 0.26 | 44 | 1014.0 |
| 20260506225540 | 58 | 350 | 0.0 | 0.0 | 0.00 | 0.38 | 0.26 | 43 | 1013.9 |
| 20260506225040 | 58 | 346 | 0.0 | 0.0 | 0.00 | 0.38 | 0.26 | 45 | 1013.8 |
| 20260506224539 | 58 | 348 | 0.0 | 0.0 | 0.00 | 0.38 | 0.26 | 45 | 1013.9 |
| 20260506224038 | 58 | 348 | 0.0 | 0.0 | 0.00 | 0.38 | 0.26 | 43 | 1014.0 |
| 20260506223538 | 58 | 350 | 0.0 | 0.0 | 0.00 | 0.38 | 0.26 | 44 | 1013.9 |
| 20260506223038 | 58 | 355 | 0.0 | 0.0 | 0.00 | 0.38 | 0.26 | 44 | 1014.2 |
| 20260506222538 | 58 | 343 | 0.0 | 0.0 | 0.00 | 0.38 | 0.26 | 44 | 1014.0 |
| 20260506222037 | 58 | 355 | 0.0 | 0.0 | 0.00 | 0.38 | 0.26 | 44 | 1013.7 |
| 20260506221537 | 58 | 338 | 0.0 | 0.0 | 0.00 | 0.38 | 0.26 | 43 | 1013.5 |
| 20260506221037 | 58 | 344 | 0.0 | 0.0 | 0.00 | 0.38 | 0.26 | 42 | 1013.0 |
| 20260506220537 | 58 | 355 | 0.0 | 0.0 | 0.00 | 0.38 | 0.26 | 42 | 1013.1 |
| 20260506220038 | 59 | 346 | 0.0 | 0.0 | 0.00 | 0.38 | 0.26 | 42 | 1013.2 |
| 20260506215538 | 59 | 341 | 0.0 | 0.0 | 0.00 | 0.39 | 0.26 | 42 | 1013.4 |
| 20260506215037 | 59 | 351 | 0.0 | 0.0 | 0.00 | 0.39 | 0.26 | 41 | 1013.2 |
| 20260506214536 | 59 | 5 | 0.0 | 0.0 | 0.00 | 0.39 | 0.26 | 41 | 1013.3 |
| 20260506214038 | 59 | 9 | 0.0 | 0.0 | 0.00 | 0.39 | 0.26 | 41 | 1013.2 |
| 20260506213635 | 59 | 345 | 0.0 | 0.0 | 0.00 | 0.39 | 0.26 | 40 | 1013.0 |
| 20260506213036 | 59 | 5 | 0.0 | 0.0 | 0.00 | 0.39 | 0.26 | 40 | 1012.5 |
| 20260506212536 | 59 | 360 | 0.0 | 0.0 | 0.00 | 0.39 | 0.26 | 41 | 1013.0 |
| 20260506212035 | 59 | 347 | 0.0 | 0.0 | 0.00 | 0.39 | 0.26 | 40 | 1012.9 |
| 20260506211535 | 59 | 355 | 0.0 | 0.0 | 0.00 | 0.39 | 0.26 | 39 | 1013.1 |
| 20260506211035 | 59 | 342 | 0.0 | 0.0 | 0.00 | 0.39 | 0.26 | 42 | 1013.2 |
| 20260506210537 | 59 | 342 | 0.0 | 0.0 | 0.00 | 0.39 | 0.26 | 40 | 1013.3 |
| 20260506210034 | 59 | 342 | 0.0 | 0.0 | 0.00 | 0.39 | 0.26 | 39 | 1013.6 |
| 20260506205535 | 59 | 336 | 0.0 | 0.0 | 0.00 | 0.39 | 0.26 | 40 | 1013.9 |
| 20260506205036 | 59 | 294 | 0.0 | 0.0 | 0.00 | 0.39 | 0.26 | 42 | 1013.9 |
| 20260506204534 | 60 | 360 | 0.0 | 0.0 | 0.00 | 0.39 | 0.26 | 39 | 1013.8 |
| 20260506204033 | 60 | 360 | 0.0 | 0.0 | 0.00 | 0.39 | 0.26 | 39 | 1013.6 |
| 20260506203533 | 60 | 348 | 0.0 | 0.0 | 0.00 | 0.39 | 0.26 | 43 | 1013.6 |
| 20260506203034 | 60 | 345 | 0.0 | 0.0 | 0.00 | 0.39 | 0.26 | 39 | 1013.6 |
| 20260506202533 | 60 | 360 | 0.0 | 0.0 | 0.00 | 0.39 | 0.26 | 40 | 1013.7 |
| 20260506202033 | 60 | 342 | 0.0 | 0.0 | 0.00 | 0.39 | 0.26 | 42 | 1013.7 |
| 20260506201543 | 60 | 350 | 0.0 | 0.0 | 0.00 | 0.39 | 0.26 | 40 | 1013.6 |
| 20260506201034 | 61 | 291 | 0.0 | 0.0 | 0.00 | 0.39 | 0.26 | 40 | 1013.7 |
| 20260506200532 | 60 | 306 | 0.0 | 0.0 | 0.00 | 0.39 | 0.26 | 40 | 1013.3 |
| 20260506200032 | 60 | 14 | 0.0 | 0.0 | 0.00 | 0.39 | 0.26 | 40 | 1013.4 |
| 20260506195533 | 60 | 338 | 0.0 | 0.0 | 0.00 | 0.39 | 0.26 | 38 | 1013.4 |
| 20260506195032 | 60 | 355 | 0.0 | 0.0 | 0.00 | 0.39 | 0.26 | 40 | 1013.5 |
| 20260506194539 | 60 | 21 | 0.0 | 0.0 | 0.00 | 0.39 | 0.26 | 40 | 1013.5 |
| 20260506194033 | 60 | 337 | 0.0 | 0.0 | 0.00 | 0.39 | 0.26 | 40 | 1013.5 |
| 20260506193535 | 61 | 336 | 0.0 | 0.0 | 0.00 | 0.39 | 0.26 | 40 | 1013.5 |
| 20260506193037 | 60 | 342 | 0.0 | 0.9 | 0.00 | 0.39 | 0.26 | 44 | 1013.6 |
| 20260506192531 | 60 | 329 | 0.0 | 0.9 | 0.00 | 0.39 | 0.26 | 41 | 1013.6 |
| 20260506192031 | 60 | 296 | 0.0 | 0.0 | 0.00 | 0.39 | 0.26 | 39 | 1013.7 |
| 20260506191531 | 60 | 294 | 0.0 | 0.0 | 0.00 | 0.39 | 0.26 | 42 | 1013.9 |
| 20260506191031 | 60 | 344 | 0.0 | 0.0 | 0.00 | 0.39 | 0.26 | 39 | 1013.9 |
| 20260506190530 | 60 | 360 | 0.0 | 0.0 | 0.00 | 0.39 | 0.26 | 39 | 1013.7 |
| 20260506190030 | 61 | 5 | 0.0 | 0.0 | 0.00 | 0.39 | 0.26 | 44 | 1013.6 |
| 20260506185530 | 61 | 302 | 0.0 | 0.0 | 0.00 | 0.39 | 0.26 | 44 | 1013.4 |
| 20260506185028 | 60 | 355 | 0.0 | 0.9 | 0.00 | 0.39 | 0.26 | 40 | 1013.5 |
| 20260506184527 | 60 | 360 | 0.0 | 0.0 | 0.00 | 0.39 | 0.26 | 45 | 1013.3 |
| 20260506184029 | 59 | 5 | 0.0 | 0.0 | 0.00 | 0.39 | 0.26 | 42 | 1013.5 |
| 20260506183526 | 59 | 344 | 0.0 | 0.0 | 0.00 | 0.39 | 0.26 | 42 | 1013.3 |
| 20260506183025 | 59 | 344 | 0.0 | 0.0 | 0.00 | 0.39 | 0.26 | 43 | 1013.1 |
| 20260506182526 | 59 | 298 | 0.0 | 0.0 | 0.00 | 0.39 | 0.26 | 47 | 1013.1 |
| 20260506182028 | 58 | 355 | 0.0 | 0.0 | 0.00 | 0.39 | 0.26 | 44 | 1013.2 |
| 20260506181524 | 58 | 338 | 0.0 | 0.0 | 0.00 | 0.39 | 0.26 | 45 | 1013.2 |
| 20260506181026 | 59 | 350 | 0.0 | 0.0 | 0.00 | 0.39 | 0.26 | 45 | 1013.3 |
| 20260506180525 | 59 | 284 | 0.0 | 0.0 | 0.00 | 0.39 | 0.26 | 45 | 1013.3 |
| 20260506180024 | 58 | 5 | 0.0 | 0.0 | 0.00 | 0.39 | 0.26 | 45 | 1013.0 |
| 20260506175526 | 59 | 26 | 0.0 | 0.0 | 0.00 | 0.39 | 0.26 | 47 | 1013.4 |
| 20260506175023 | 58 | 21 | 0.0 | 0.0 | 0.00 | 0.39 | 0.26 | 47 | 1013.4 |
| 20260506174523 | 58 | 10 | 0.0 | 0.0 | 0.00 | 0.39 | 0.26 | 45 | 1013.5 |
| 20260506174026 | 59 | 34 | 0.0 | 0.9 | 0.00 | 0.39 | 0.26 | 47 | 1013.5 |
| 20260506173525 | 59 | 348 | 0.0 | 0.9 | 0.00 | 0.39 | 0.26 | 50 | 1013.7 |
| 20260506173022 | 58 | 5 | 0.0 | 0.0 | 0.00 | 0.39 | 0.26 | 48 | 1013.7 |
| 20260506172521 | 57 | 24 | 0.0 | 0.0 | 0.00 | 0.39 | 0.26 | 52 | 1013.5 |
| 20260506172024 | 57 | 360 | 0.0 | 0.0 | 0.00 | 0.39 | 0.26 | 49 | 1013.4 |
| 20260506171522 | 57 | 346 | 0.0 | 0.0 | 0.00 | 0.39 | 0.26 | 48 | 1013.4 |
| 20260506171022 | 58 | 360 | 0.0 | 0.0 | 0.00 | 0.39 | 0.26 | 50 | 1013.3 |
| 20260506170521 | 57 | 28 | 0.0 | 0.9 | 0.00 | 0.39 | 0.26 | 48 | 1013.4 |